Location: Pensacola
(30.4142°N, 87.2155°W)
Time: 11:56:58
(UTC-05:00)

YUBILEINY - Visible Passes

Search period start: 31 May 2023 00:00
Search period end: 10 June 2023 00:00
Orbit: 1478 x 1508 km, 82.5° (Epoch: 31 May)

Date Brightness Start Highest point End Pass type
(mag) Time Alt. Az. Time Alt. Az. Time Alt. Az.
31 May ? 04:19:59 10° E 04:22:59 12° E 04:25:57 10° ENE visible
01 Jun ? 05:20:48 10° SSE 05:29:02 46° E 05:37:16 10° NNE visible
02 Jun ? 04:33:40 10° SE 04:39:58 22° E 04:46:16 10° NE visible
04 Jun ? 04:49:18 10° SSE 04:57:08 37° E 05:04:57 10° NNE visible
05 Jun ? 04:02:53 10° ESE 04:08:11 18° E 04:13:27 10° NE visible
06 Jun ? 05:05:50 10° SSE 05:14:26 60° E 05:23:04 10° NNE visible
07 Jun ? 04:17:57 10° SE 04:25:16 30° E 04:32:34 10° NNE visible
08 Jun ? 03:32:36 10° ESE 03:36:23 13° E 03:40:11 10° NE visible
09 Jun ? 04:34:09 10° SSE 04:42:31 49° E 04:50:52 10° NNE visible
